CZ-6A DEB

Satellite information

Favourite Embed

Satellite Type and Status

DEBRISIN ORBIT

Key statistics

Satellite CZ-6A DEB at a glance.

Uptime

494

Days in orbit

Revolutions

≈ 13.9

Per day

Orbit

LEO

Low Earth Orbit

Inclination

89.0

Latest

Satellite identification and parameters

Extended collection of information and parameters for CZ-6A DEB.

Object identification

Identified? True

Debris? True

Object name: CZ-6A DEB

International designator: 2024-140CJ

Object number (NORAD): 60681

Object ID (CCSDS): 60681

Country: PEOPLES REPUBLIC OF CHINA (PRC)

Current information (Y/N): Y

RCS size: MEDIUM

Orbital parameters

Period: 103.595 minutes

Inclination: 88.9975 deg

SMA: 7306.677 km

Apoapsis: 1062.638 km

Periapsis: 794.446 km

RAAN: 298.3441 deg

Eccentricy: 0.01835252

Argument of periapsis: 142.9267 deg

Mean anomaly: 218.475 deg

Mean motion: 13.90025792 rev/day

Mean motion (dot): 0.00000716 rev/day2

B* drag term: 0.00049683573 1/REarth

Two-line elements (TLE)

Creation date: Dec. 12, 2025, 10:14 a.m.

Reference frame: TEME

Reference center: EARTH

Epoch: Dec. 12, 2025, 6:51 a.m. UTC

TLE line 0: 0 CZ-6A DEB

TLE line 1: 1 60681U 24140CJ 25346.28591563 .00000716 00000-0 49684-3 0 9999

TLE line 2: 2 60681 88.9975 298.3441 0183525 142.9267 218.4750 13.90025792 68071

Live tracking on map

Real-time ground track for satellite CZ-6A DEB.

In-orbit conjunctions

A list of the most updated potential collisions computed for object CZ-6A DEB.

Target Orbit TCA Probability of collision Miss distance Type
DELTA 1 DEB SSO 2025-10-09 13:41:06 0.0001014609 929.0 (m) DEBRIS
SCOUT A R/B LEO 2025-01-20 02:43:21 0.0001693331 862.0 (m) ROCKET BODY
FENGYUN 1C DEB SSO 2024-11-09 22:48:39 0.0002489849 993.0 (m) DEBRIS
METEOR 2-9 LEO 2024-11-07 00:03:27 0.0001158579 838.0 (m) PAYLOAD
FENGYUN 1C DEB SSO 2024-10-07 20:42:52 0.0002205369 354.0 (m) DEBRIS

Associated space launch

18 Low Earth Orbit communication satellites with Ku, Q and V band payloads for the G60 constellation operated by Shanghai Spacecom Satellite Technology (SSST) with funding backed by the Shanghai local government. Initial constellation will consist of 1296 satellites by 2027 with long term plans to expand it to 12000 satellites.

CZ-6A DEB was lifted into orbit during the mission ‘Long March 6A | G60 Polar Group 01’, on board a Long March 6A space rocket.

The launch took place on Aug. 6, 2024, 6:42 a.m. from Launch Complex 9A.

For more information about the launch, click the button.

Launch to space Long March 6A | G60 Polar Group 01
Long March 6A | G60 Polar Group 01

Agency: N/A

Status: Launch Successful

Launch date: Aug. 6, 2024, 6:42 a.m. UTC

Rocket: Long March 6A

Launch pad: Launch Complex 9A

Location: Taiyuan Satellite Launch Center, People's Republic of China

...

Latest news about this satellite

News about space launch
Brightness of first Chinese broadband constellation satellites alarms astronomers

The first satellites of a Chinese broadband constellation are significantly brighter than those of Western systems, posing a new challenge for astronomers.

News about space launch
Chinese rocket stage breaks up into cloud of more than 700 pieces of space debris

HELSINKI — A Chinese Long March 6A rocket’s upper stage has fragmented into a cloud of over 700 pieces of space debris, adding to concerns about long-term orbital safety. China […]

News about space launch
China's Thousand Sails Megaconstellation Kicks Off with Dangerous Debris Field

China's Thousand Sails Megaconstellation Kicks Off with Dangerous Debris Field


Newsletter sign-up

Weekly statistics, charts and insights to help you stay on top of the space industry.